Starlink 36313

operational
NORAD ID: 68156 Int'l Des: 2026-049 Owner: SPXS Country: US Constellation: starlink
LEOCIRCULARRETROGRADE

Starlink 36313について

説明を読み込み中...

リアルタイム位置

3D地球を読み込み中...

次回通過

高度履歴

Altitude vs Time

uPlot chart will show altitude changes over time

軌道要素

1 68156C 26049Q 26072.91229167 .00491450 00000+0 57171-3 0 729
2 68156 97.2818 91.9117 0010075 251.9541 104.9500 16.08205463 16
Epoch: Mar 13, 2026 • Age: 71 hours

現在のステータス

高度 259.5 km
速度 7.75 km/s
衛星直下点 45.26°N, 76.96°W
打ち上げ日 Mar 13, 2026
運用期間 2 days
タイプ internet

技術仕様

分類 Payload
質量 575.00 kg
乾燥質量 530.00 kg
総質量 575.00 kg
長さ 0.30 m
直径 4.10 m
スパン 29.00 m
形状 Box + pan
製造者 SPXS
バスタイプ Starlink V2MO
フェーズステータス In Orbit
所有者/国 SPXS/US

大規模コンステレーション

Loading constellations...